Location: ???????
(55.4362°N, 38.1183°E)
Time: 18:28:24
(UTC+00:00)

Thor Agena Rocket - Pass Details

Date: 17 June 2021
Orbit: 759 x 808 km, 99.0° (Epoch: 29 July)

Event Time Altitude Azimuth Distance (km) Brightness Sun altitude
Rises 21:12:15 0° 19° (NNE) 3,334 8.2 -11.1°
Reaches altitude 10° 21:14:41 10° 24° (NNE) 2,394 7.1 -11.1°
Maximum altitude 21:19:51 52° 101° (E) 990 4.0 -11.1°
Enters shadow 21:24:03 15° 174° (S) 2,025 5.0 -11.2°
